FLOCK 4P-9 (44807 NORAD) Tracking and Keplerian Element Data

This shows tracking and keplerian element data for the satellite.

Feedback or suggestion? Click here.




ElementValue
Catalog44807
NameFLOCK 4P-9
Epoch Orbit864
Epoch Day23.11360979
Epoch Year2020
RAAN84.9018
Inclination97.5162
Eccentricity0.0015085
Argument of Perigee53.3978
Mean Anonmoly306.8642
Mean Motion15.19218755
Decay Rate4.54E-06
L11 44807U 19081D 20023.11360979 .00000454 00000-0 24812-4 0 9999
L22 44807 97.5162 84.9018 0015085 53.3978 306.8642 15.19218755 8640

Live tracking and technical data element details for FLOCK 4P-9 (NORAD 44807). FLOCK 4P-9 can be tracked NOW for your location showing map with azimuth and elevation plus other details from your city location.

Track the satellite on the map from your city or location and see movement details for azimuth, elevation, latitude, longitude, range, height, and movement on the map or in text.







IsCatalogInMostPopularTable: catalog: 44807, numindb: 7
Update: records affected: 1



GetName: 44807 FLOCK 4P-9

Hit Count: updated at: Fri, 24 Jan 2020 15:20:27 GMT